Location: Devore Heights
(34.2372°N, 117.4156°W)
Time: 02:13:02
(UTC+00:00)

A-11 Canister half - Pass Details

Date: 18 September 2024
Orbit: 1515 x 1684 km, 47.2° (Epoch: 06 October)

Event Time Altitude Azimuth Distance (km) Brightness Sun altitude
Rises 07:46:10 0° 305° (NW) 4,662 11.8 -54.1°
Reaches altitude 10° 07:49:12 10° 306° (NW) 3,676 11.2 -54.1°
Enters shadow 07:49:39 12° 306° (NW) 3,528 11.0 -54.1°
